Location: Sungai Bunut
(2.6333°N, 113.7333°E)
Time: 15:03:42
(UTC+00:00)

Altair - Pass Details

Date: 07 December 2023
Orbit: 1501 x 1682 km, 47.2° (Epoch: 24 February)

Event Time Altitude Azimuth Distance (km) Brightness Sun altitude
Rises 10:58:26 0° 280° (W) 4,639 11.1 -10.7°
Reaches altitude 10° 11:03:20 10° 258° (WSW) 3,680 11.0 -11.8°
Maximum altitude 11:07:59 15° 227° (SW) 3,341 10.4 -12.9°
Drops below altitude 10° 11:12:44 10° 196° (SSW) 3,742 10.1 -14.0°
Sets 11:17:53 0° 173° (S) 4,767 10.3 -15.2°
